Humidity-temperature Sensor

Selected Measurement Type: Relative Humidity

 
Relative Humidity [%]     6 entries per hour
Showing data from 9/19/2022 (00:00:00 Z) to 9/18/2022 (00:01:00 Z)
Previous Next [ Day | 3-Days | 7-Days ]
First Last
Prev [ Day | 3-Days | 7-Days ] Next
First Last

Start Time:     :
End Time:     :     
Time (in GMT) :00 :50 :40 :30 :20 :10
Previous Next [ Day | 3-Days | 7-Days ]
First Last
Prev [ Day | 3-Days | 7-Days ] Next
First Last


123 => good data
MM => data is determined as missing
-- => data not received/configured
Back to Top Back to Top
9/19/2022 00:00 to 23:10 90.39 91.34 90.55 90.01 88.93 88.47
9/18/2022 23:00 to 22:10 88.61 89.82 90.09 90.79 91.82 91.50
9/18/2022 22:00 to 21:10 91.40 91.70 91.28 91.14 91.14 91.22
9/18/2022 21:00 to 20:10 91.54 92.39 93.32 94.00 94.21 93.96
9/18/2022 20:00 to 19:10 93.60 93.50 93.24 93.50 93.46 93.58
9/18/2022 19:00 to 18:10 93.88 93.94 93.88 94.33 94.33 94.39
9/18/2022 18:00 to 17:10 94.27 94.33 94.35 94.51 94.61 94.71
9/18/2022 17:00 to 16:10 94.59 94.45 94.45 94.55 94.39 93.92
9/18/2022 16:00 to 15:10 93.66 93.50 93.34 93.78 93.68 93.84
9/18/2022 15:00 to 14:10 94.37 93.78 93.66 93.16 93.04 92.93
9/18/2022 14:00 to 13:10 93.58 93.76 93.74 94.25 93.86 93.78
9/18/2022 13:00 to 12:10 93.76 94.04 94.29 94.09 94.23 94.27
9/18/2022 12:00 to 11:10 94.09 93.46 93.34 93.06 93.30 93.40
9/18/2022 11:00 to 10:10 94.31 95.58 95.86 95.64 95.42 95.26
9/18/2022 10:00 to 9:10 95.28 95.14 94.85 94.67 94.61 94.51
9/18/2022 09:00 to 8:10 94.71 94.79 94.95 95.64 95.86 95.90
9/18/2022 08:00 to 7:10 95.86 96.02 95.64 95.68 96.19 96.04
9/18/2022 07:00 to 6:10 95.98 95.68 95.34 94.91 94.51 94.59
9/18/2022 06:00 to 5:10 94.63 94.47 94.00 93.78 93.82 93.46
9/18/2022 05:00 to 4:10 93.38 92.99 93.16 93.42 92.77 93.26
9/18/2022 04:00 to 3:10 93.36 93.44 93.66 93.42 93.60 93.74
9/18/2022 03:00 to 2:10 93.72 93.26 93.44 93.52 93.32 92.99
9/18/2022 02:00 to 1:10 93.20 93.06 92.91 92.35 92.13 91.18
9/18/2022 01:00 to 0:10 89.58 88.73 88.96 89.22 89.18 88.67